FW5165 Weather Reports


Display with metric or nautical units.
time (UTC)temp
F
wind
direction
speed
MPH
gust
MPH
rain 1hr
in
rain 24hr
in
rain mn
in
humidity
%
barometer
mb
20260507150018 60 318 1.0 4.0 0.00 0.00 0.00 89 1020.2
20260507145516 59 26 0.0 2.0 0.00 0.00 0.00 90 1020.2
20260507145016 59 26 0.0 2.0 0.00 0.00 0.00 90 1020.2
20260507144516 59 40 0.0 4.0 0.00 0.00 0.00 90 1020.2
20260507144016 58 355 1.0 3.0 0.00 0.00 0.00 90 1020.1
20260507143515 58 59 1.0 2.0 0.00 0.00 0.00 90 1020.0
20260507143015 58 18 0.0 1.0 0.00 0.00 0.00 90 1019.9
20260507142515 58 53 0.0 1.0 0.00 0.00 0.00 91 1019.9
20260507142014 57 297 0.0 2.0 0.00 0.00 0.00 90 1019.9
20260507141515 57 314 0.0 2.0 0.00 0.00 0.00 90 1019.9
20260507141014 57 16 0.0 1.0 0.00 0.00 0.00 90 1019.9
20260507140514 57 57 0.0 2.0 0.00 0.00 0.00 90 1019.9
20260507140024 57 65 0.0 2.0 0.00 0.00 0.00 90 1019.8
20260507135513 57 116 0.0 1.0 0.00 0.00 0.00 89 1019.7
20260507135013 57 360 0.0 2.0 0.00 0.00 0.00 90 1019.7
20260507134513 57 360 1.0 2.0 0.00 0.00 0.00 90 1019.8
20260507134012 57 9 0.0 2.0 0.00 0.00 0.00 90 1019.6
20260507133515 57 87 0.0 1.0 0.00 0.00 0.00 89 1019.6
20260507133012 57 53 0.0 1.0 0.00 0.00 0.00 89 1019.6
20260507132511 57 53 0.0 2.0 0.00 0.00 0.00 89 1019.6
20260507132011 57 52 0.0 2.0 0.00 0.00 0.00 89 1019.5
20260507131511 57 53 0.0 4.0 0.00 0.00 0.00 89 1019.5
20260507131011 57 15 1.0 4.0 0.00 0.00 0.00 89 1019.5
20260507130510 57 82 0.0 2.0 0.00 0.00 0.00 89 1019.5
20260507130010 57 144 0.0 2.0 0.00 0.00 0.00 89 1019.4
20260507125510 57 184 0.0 2.0 0.00 0.00 0.00 89 1019.5
20260507125011 57 137 0.0 4.0 0.00 0.00 0.00 89 1019.4
20260507124514 57 144 1.0 3.0 0.00 0.00 0.00 88 1019.4
20260507124012 58 144 0.0 1.0 0.00 0.00 0.00 88 1019.5
20260507123507 58 144 0.0 1.0 0.00 0.00 0.00 87 1019.4
20260507123006 58 144 0.0 2.0 0.00 0.00 0.00 87 1019.3
20260507122507 58 144 0.0 4.0 0.00 0.00 0.00 87 1019.3
20260507122004 59 144 1.0 4.0 0.00 0.00 0.00 86 1019.3
20260507121504 59 101 0.0 2.0 0.00 0.00 0.00 86 1019.3
20260507121004 59 102 0.0 2.0 0.00 0.00 0.00 86 1019.2
20260507120504 59 102 0.0 1.0 0.00 0.00 0.00 85 1019.2
20260507120005 59 102 0.0 1.0 0.00 0.00 0.00 85 1019.3
20260507115506 60 102 0.0 1.0 0.00 0.00 0.00 85 1019.4
20260507115006 60 102 0.0 1.0 0.00 0.00 0.00 85 1019.3
20260507114504 60 102 0.0 1.0 0.00 0.00 0.00 84 1019.2
20260507114002 60 102 0.0 2.0 0.00 0.00 0.00 84 1019.3
20260507113502 60 102 0.0 2.0 0.00 0.00 0.00 84 1019.2
20260507113002 61 102 0.0 4.0 0.00 0.00 0.00 84 1019.2
20260507112502 61 100 1.0 4.0 0.00 0.00 0.00 84 1019.2
20260507112001 61 70 1.0 4.0 0.00 0.00 0.00 84 1019.2
20260507111602 61 105 0.0 4.0 0.00 0.00 0.00 84 1019.2
20260507111000 61 105 1.0 4.0 0.00 0.00 0.00 84 1019.2
20260507110601 61 106 1.0 4.0 0.00 0.00 0.00 84 1019.2
20260507110003 61 107 1.0 4.0 0.00 0.00 0.00 85 1019.2
20260507105609 61 111 1.0 2.0 0.00 0.00 0.00 85 1019.2
20260507105059 60 104 1.0 2.0 0.00 0.00 0.00 85 1019.2
20260507104600 60 105 1.0 2.0 0.00 0.00 0.00 86 1019.2
20260507104059 60 103 0.0 2.0 0.00 0.00 0.00 87 1019.2
20260507103559 59 103 0.0 2.0 0.00 0.00 0.00 87 1019.1
20260507103059 59 102 0.0 2.0 0.00 0.00 0.00 87 1019.2
20260507102558 59 102 0.0 2.0 0.00 0.00 0.00 87 1019.2
20260507102058 59 102 0.0 1.0 0.00 0.00 0.00 86 1019.3
20260507101606 59 102 0.0 1.0 0.00 0.00 0.00 85 1019.2
20260507101054 59 102 0.0 2.0 0.00 0.00 0.00 85 1019.2
20260507100557 60 102 0.0 2.0 0.00 0.00 0.00 84 1019.2
20260507100053 60 82 0.0 2.0 0.00 0.00 0.00 83 1019.3
20260507095552 61 86 0.0 4.0 0.00 0.00 0.00 83 1019.3
20260507095052 61 80 0.0 4.0 0.00 0.00 0.00 83 1019.3
20260507094559 61 76 1.0 4.0 0.00 0.00 0.00 83 1019.2
20260507094052 61 76 1.0 4.0 0.00 0.00 0.00 83 1019.3
20260507093549 61 69 1.0 3.0 0.00 0.00 0.00 83 1019.3
20260507093049 61 59 1.0 5.0 0.00 0.00 0.00 83 1019.3
20260507092549 61 53 2.0 5.0 0.00 0.00 0.00 83 1019.4
20260507092048 62 87 1.0 4.0 0.00 0.00 0.00 82 1019.4
20260507091559 62 88 1.0 4.0 0.00 0.00 0.00 82 1019.4
20260507091148 62 89 1.0 4.0 0.00 0.00 0.00 82 1019.4
20260507090549 62 90 1.0 3.0 0.00 0.00 0.00 82 1019.4
20260507090107 62 90 1.0 3.0 0.00 0.00 0.00 83 1019.5
20260507085546 62 92 1.0 4.0 0.00 0.00 0.00 83 1019.5
20260507085045 62 92 0.0 3.0 0.00 0.00 0.00 83 1019.5
20260507084545 62 94 1.0 3.0 0.00 0.00 0.00 83 1019.5
20260507084045 62 94 1.0 3.0 0.00 0.00 0.00 83 1019.5
20260507083545 61 95 1.0 3.0 0.00 0.00 0.00 83 1019.5
20260507083045 61 96 1.0 4.0 0.00 0.00 0.00 83 1019.5
20260507082547 61 107 1.0 3.0 0.00 0.00 0.00 83 1019.6
20260507082043 61 109 1.0 4.0 0.00 0.00 0.00 83 1019.6
20260507081552 62 99 1.0 3.0 0.00 0.00 0.00 84 1019.6
20260507081044 62 100 1.0 4.0 0.00 0.00 0.00 84 1019.7
20260507080543 62 101 1.0 5.0 0.00 0.00 0.00 84 1019.7
20260507080043 61 98 1.0 5.0 0.00 0.00 0.00 84 1019.7
20260507075544 62 95 1.0 4.0 0.00 0.00 0.00 83 1019.7
20260507075042 62 96 1.0 5.0 0.00 0.00 0.00 83 1019.7
20260507074542 62 94 2.0 5.0 0.00 0.00 0.00 83 1019.7
20260507074040 62 94 1.0 4.0 0.00 0.00 0.00 83 1019.6
20260507073539 62 94 1.0 4.0 0.00 0.00 0.00 83 1019.7
20260507073054 62 96 1.0 3.0 0.00 0.00 0.00 83 1019.7
20260507072539 62 96 1.0 4.0 0.00 0.00 0.00 83 1019.7
20260507072038 62 97 1.0 4.0 0.00 0.00 0.00 82 1019.8
20260507071538 62 98 1.0 4.0 0.00 0.00 0.00 82 1019.8
20260507071037 62 100 2.0 3.0 0.00 0.00 0.00 82 1019.7
20260507070536 63 105 1.0 4.0 0.00 0.00 0.00 81 1019.8
20260507070048 63 106 1.0 4.0 0.00 0.00 0.00 81 1019.8
20260507065535 63 112 2.0 4.0 0.00 0.00 0.00 80 1019.8
20260507065036 63 119 2.0 4.0 0.00 0.00 0.00 80 1019.8
20260507064534 63 151 1.0 4.0 0.00 0.00 0.00 80 1019.8
20260507064034 63 153 1.0 5.0 0.00 0.00 0.00 80 1019.7
20260507063535 63 155 1.0 5.0 0.00 0.00 0.00 80 1019.7
20260507063034 63 148 1.0 4.0 0.00 0.00 0.00 80 1019.8
20260507062534 63 139 0.0 2.0 0.00 0.00 0.00 80 1019.7
20260507062034 63 139 1.0 2.0 0.00 0.00 0.00 81 1019.7
20260507061535 63 140 1.0 6.0 0.00 0.00 0.00 81 1019.8
20260507061034 63 141 1.0 6.0 0.00 0.00 0.00 81 1019.7
20260507060533 62 218 1.0 4.0 0.00 0.00 0.00 81 1019.7
20260507060034 63 219 0.0 9.0 0.00 0.00 0.00 80 1019.6
20260507055533 63 213 2.0 10.0 0.00 0.00 0.00 79 1019.7
20260507055034 64 101 1.0 4.0 0.00 0.00 0.00 79 1019.6
20260507054532 64 105 1.0 4.0 0.00 0.00 0.00 78 1019.5
20260507054032 64 96 1.0 5.0 0.00 0.00 0.00 78 1019.5
20260507053533 64 103 2.0 5.0 0.00 0.00 0.00 78 1019.5
20260507053034 64 109 1.0 4.0 0.00 0.00 0.00 78 1019.5
20260507052532 64 112 1.0 4.0 0.00 0.00 0.00 78 1019.5
20260507052032 64 113 1.0 5.0 0.00 0.00 0.00 77 1019.5
20260507051532 64 115 2.0 5.0 0.00 0.00 0.00 77 1019.5
20260507051032 65 97 2.0 5.0 0.00 0.00 0.00 77 1019.5
20260507050531 65 96 2.0 4.0 0.00 0.00 0.00 76 1019.4
20260507050034 65 100 2.0 3.0 0.00 0.00 0.00 76 1019.4
20260507045533 65 103 2.0 4.0 0.00 0.00 0.00 76 1019.4
20260507045032 65 102 1.0 5.0 0.00 0.00 0.00 76 1019.4
20260507044542 65 107 2.0 5.0 0.00 0.00 0.00 76 1019.4
20260507044029 65 108 1.0 5.0 0.00 0.00 0.00 76 1019.3
20260507043529 65 120 2.0 4.0 0.00 0.00 0.00 77 1019.3
20260507043037 65 132 2.0 4.0 0.00 0.00 0.00 77 1019.3
20260507042530 65 138 1.0 4.0 0.00 0.00 0.00 77 1019.2
20260507042029 65 141 1.0 4.0 0.00 0.00 0.00 77 1019.3
20260507041529 65 142 1.0 4.0 0.00 0.00 0.00 77 1019.2
20260507041029 65 143 0.0 2.0 0.00 0.00 0.00 77 1019.1
20260507040528 65 143 0.0 2.0 0.00 0.00 0.00 77 1019.1
20260507040030 65 143 0.0 2.0 0.00 0.00 0.00 77 1019.1
20260507035529 65 143 0.0 1.0 0.00 0.00 0.00 77 1019.0
20260507035028 66 143 0.0 1.0 0.00 0.00 0.00 76 1019.0
20260507034528 66 143 0.0 1.0 0.00 0.00 0.00 76 1019.0
20260507034029 66 143 0.0 1.0 0.00 0.00 0.00 76 1019.0
20260507033528 66 143 0.0 1.0 0.00 0.00 0.00 76 1019.0
20260507033028 66 143 0.0 1.0 0.00 0.00 0.00 75 1019.0
20260507032528 67 143 0.0 1.0 0.00 0.00 0.00 74 1018.9
20260507032027 67 143 0.0 1.0 0.00 0.00 0.00 73 1018.9
20260507031527 67 143 0.0 1.0 0.00 0.00 0.00 72 1018.8
20260507031031 68 140 0.0 1.0 0.00 0.00 0.00 72 1018.7
20260507030527 68 360 0.0 0.0 0.00 0.00 0.00 72 1018.8
20260507030026 68 66 0.0 0.0 0.00 0.00 0.00 72 1018.8
20260507025526 68 80 0.0 0.0 0.00 0.00 0.00 71 1018.8
20260507025026 69 92 0.0 2.0 0.00 0.00 0.00 71 1018.7
20260507024529 69 99 0.0 2.0 0.00 0.00 0.00 71 1018.8
20260507024026 69 190 0.0 4.0 0.00 0.00 0.00 71 1018.7
20260507023529 69 190 1.0 4.0 0.00 0.00 0.00 71 1018.8
20260507023025 69 190 0.0 3.0 0.00 0.00 0.00 70 1018.7
20260507022525 70 192 0.0 4.0 0.00 0.00 0.00 69 1018.7
20260507022026 70 192 2.0 3.0 0.00 0.00 0.00 68 1018.7
20260507021525 70 187 0.0 2.0 0.00 0.00 0.00 68 1018.7
20260507021025 70 222 0.0 1.0 0.00 0.00 0.00 68 1018.7
20260507020526 70 230 0.0 2.0 0.00 0.00 0.00 68 1018.7
20260507020024 70 230 0.0 2.0 0.00 0.00 0.00 68 1018.7
20260507015524 70 227 1.0 2.0 0.00 0.00 0.00 67 1018.8
20260507015023 70 262 0.0 5.0 0.00 0.00 0.00 68 1018.8
20260507014527 70 239 2.0 5.0 0.00 0.00 0.00 68 1018.8
20260507014024 70 240 4.0 5.0 0.00 0.00 0.00 67 1018.8
20260507013522 71 253 3.0 5.0 0.00 0.00 0.00 67 1018.8
20260507013022 71 244 2.0 6.0 0.00 0.00 0.00 68 1018.8
20260507012526 70 249 4.0 8.0 0.00 0.00 0.00 69 1018.8
20260507012025 70 180 5.0 8.0 0.00 0.00 0.00 68 1018.8
20260507011529 70 242 4.0 7.0 0.00 0.00 0.00 67 1018.8
20260507011022 71 255 4.0 7.0 0.00 0.00 0.00 68 1018.9
20260507010525 71 247 4.0 7.0 0.00 0.00 0.00 66 1018.9
20260507010022 72 252 2.0 6.0 0.00 0.00 0.00 66 1018.9
20260507005526 72 344 0.0 7.0 0.00 0.00 0.00 66 1018.9
20260507005025 71 265 1.0 7.0 0.00 0.00 0.00 66 1018.8
20260507004521 71 269 3.0 7.0 0.00 0.00 0.00 67 1018.9
20260507004021 72 214 5.0 7.0 0.00 0.00 0.00 65 1018.9
20260507003520 72 258 3.0 6.0 0.00 0.00 0.00 66 1018.8
20260507003019 71 319 1.0 5.0 0.00 0.00 0.00 66 1018.8
20260507002518 71 305 3.0 9.0 0.00 0.00 0.00 68 1018.9
20260507002018 70 281 6.0 9.0 0.00 0.00 0.00 67 1018.8
20260507001518 71 217 6.0 9.0 0.00 0.00 0.00 66 1018.9
20260507001020 71 252 3.0 6.0 0.00 0.00 0.00 67 1019.0
20260507000517 70 204 2.0 6.0 0.00 0.00 0.00 68 1019.0
20260507000022 70 208 3.0 6.0 0.00 0.00 0.00 69 1019.0
20260506235516 69 165 4.0 6.0 0.00 0.00 0.00 68 1019.0
20260506235015 69 196 2.0 7.0 0.00 0.00 0.00 68 1019.0
20260506234515 69 173 4.0 7.0 0.00 0.00 0.00 68 1019.0
20260506234015 69 183 1.0 9.0 0.00 0.00 0.00 68 1019.0
20260506233515 69 219 5.0 9.0 0.00 0.00 0.00 69 1019.1
20260506233015 69 194 3.0 8.0 0.00 0.00 0.00 69 1019.1
20260506232514 69 205 2.0 7.0 0.00 0.00 0.00 68 1019.1
20260506232014 69 213 3.0 7.0 0.00 0.00 0.00 68 1019.2
20260506231514 70 201 5.0 7.0 0.00 0.00 0.00 67 1019.2
20260506231016 71 257 1.0 5.0 0.00 0.00 0.00 67 1019.3
20260506230511 70 325 1.0 5.0 0.00 0.00 0.00 66 1019.4
20260506230009 69 325 0.0 4.0 0.00 0.00 0.00 68 1019.4
20260506225509 69 325 0.0 6.0 0.00 0.00 0.00 68 1019.5
20260506225008 68 325 1.0 8.0 0.00 0.00 0.00 68 1019.7
20260506224508 69 15 3.0 6.0 0.00 0.00 0.00 68 1019.7
20260506224007 69 346 0.0 7.0 0.00 0.00 0.00 69 1019.8
20260506223506 68 336 0.0 7.0 0.00 0.00 0.00 69 1019.9
20260506223006 69 350 5.0 7.0 0.00 0.00 0.00 68 1020.0
20260506222506 69 281 1.0 5.0 0.00 0.00 0.00 68 1020.1
20260506222005 68 46 0.0 6.0 0.00 0.00 0.00 69 1020.1
20260506221507 68 53 3.0 7.0 0.00 0.00 0.00 68 1020.2
20260506221004 68 342 2.0 9.0 0.00 0.00 0.00 69 1020.3
20260506220503 68 228 3.0 7.0 0.00 0.00 0.00 69 1020.3
20260506220003 68 248 2.0 8.0 0.00 0.00 0.00 69 1020.4
20260506215503 68 265 5.0 8.0 0.00 0.00 0.00 70 1020.4
20260506215002 67 303 5.0 8.0 0.00 0.00 0.00 69 1020.7
20260506214600 67 298 0.0 5.0 0.00 0.00 0.00 70 1020.6
20260506214059 67 263 1.0 4.0 0.00 0.00 0.00 72 1020.6
20260506213558 66 277 0.0 7.0 0.00 0.00 0.00 71 1020.7
20260506213058 66 338 3.0 7.0 0.00 0.00 0.00 71 1020.9
20260506212557 66 335 0.0 5.0 0.00 0.00 0.00 72 1020.8
20260506212057 66 335 1.0 5.0 0.00 0.00 0.00 72 1020.9
20260506211557 66 338 0.0 7.0 0.00 0.00 0.00 72 1021.0
20260506211056 66 333 4.0 7.0 0.00 0.00 0.00 72 1021.0
20260506210557 66 334 1.0 6.0 0.00 0.00 0.00 72 1021.1
20260506210057 66 334 3.0 8.0 0.00 0.00 0.00 72 1021.2
20260506205558 66 346 5.0 10.0 0.00 0.00 0.00 73 1021.1
20260506205055 66 360 5.0 7.0 0.00 0.00 0.00 72 1021.3
20260506204557 66 331 3.0 6.0 0.00 0.00 0.00 72 1021.2
20260506204053 66 239 0.0 5.0 0.00 0.00 0.00 74 1021.3
20260506203553 65 253 0.0 5.0 0.00 0.00 0.00 74 1021.4
20260506203054 65 261 0.0 5.0 0.00 0.00 0.00 74 1021.4
20260506202553 65 300 0.0 7.0 0.00 0.00 0.00 75 1021.4
20260506202053 65 286 3.0 8.0 0.00 0.00 0.00 75 1021.5
20260506201612 65 247 4.0 8.0 0.00 0.00 0.00 75 1021.6
20260506201053 65 256 3.0 9.0 0.00 0.00 0.00 75 1021.5
20260506200552 65 271 4.0 9.0 0.00 0.00 0.00 74 1021.6
20260506200052 65 246 2.0 8.0 0.00 0.00 0.00 74 1021.6
20260506195552 65 302 0.0 5.0 0.00 0.00 0.00 74 1021.7
20260506195054 65 273 1.0 5.0 0.00 0.00 0.00 74 1021.6
20260506194553 65 329 0.0 7.0 0.00 0.00 0.00 75 1021.6
20260506194048 64 329 3.0 7.0 0.00 0.00 0.00 76 1021.7
20260506193550 64 262 3.0 7.0 0.00 0.00 0.00 75 1021.8
20260506193052 64 277 4.0 7.0 0.00 0.00 0.00 76 1021.9
20260506192548 64 265 4.0 8.0 0.00 0.00 0.00 77 1022.0
20260506192048 64 221 4.0 8.0 0.00 0.00 0.00 77 1022.1
20260506191547 63 285 3.0 8.0 0.00 0.00 0.00 76 1022.1
20260506191047 63 322 4.0 7.0 0.00 0.00 0.00 77 1022.2
20260506190550 63 236 2.0 7.0 0.00 0.00 0.00 77 1022.3
20260506190046 63 267 3.0 9.0 0.00 0.00 0.00 77 1022.3
20260506185546 63 277 6.0 8.0 0.00 0.00 0.00 77 1022.3
20260506185045 64 258 2.0 6.0 0.00 0.00 0.00 78 1022.4
20260506184550 63 290 3.0 7.0 0.00 0.00 0.00 79 1022.3
20260506184045 63 227 5.0 7.0 0.00 0.00 0.00 78 1022.4
20260506183545 63 281 1.0 7.0 0.00 0.00 0.00 78 1022.4
20260506183044 63 284 2.0 7.0 0.00 0.00 0.00 78 1022.3
20260506182543 63 271 1.0 6.0 0.00 0.00 0.00 79 1022.4
20260506182043 63 281 0.0 8.0 0.00 0.00 0.00 79 1022.4
20260506181543 62 277 4.0 10.0 0.00 0.00 0.00 79 1022.4
20260506181043 63 244 5.0 10.0 0.00 0.00 0.00 79 1022.4
20260506180542 63 251 1.0 6.0 0.00 0.00 0.00 81 1022.4
20260506180040 62 238 4.0 6.0 0.00 0.00 0.00 81 1022.3
20260506175541 62 262 3.0 8.0 0.00 0.00 0.00 81 1022.4
20260506175040 62 284 3.0 8.0 0.00 0.00 0.00 82 1022.2
20260506174538 61 265 2.0 6.0 0.00 0.00 0.00 82 1022.3
20260506174038 61 268 3.0 6.0 0.00 0.00 0.00 81 1022.4
20260506173540 61 241 3.0 6.0 0.00 0.00 0.00 82 1022.4
20260506173046 61 212 3.0 6.0 0.00 0.00 0.00 82 1022.4
20260506172537 61 267 2.0 6.0 0.00 0.00 0.00 82 1022.4
20260506172036 61 254 0.0 6.0 0.00 0.00 0.00 82 1022.4
20260506171544 61 257 0.0 4.0 0.00 0.00 0.00 83 1022.5
20260506171035 61 276 0.0 4.0 0.00 0.00 0.00 83 1022.4
20260506170533 60 292 1.0 5.0 0.00 0.00 0.00 83 1022.4
20260506170033 60 327 0.0 5.0 0.00 0.00 0.00 83 1022.4
20260506165538 60 282 1.0 5.0 0.00 0.00 0.00 85 1022.4
20260506165032 60 268 2.0 5.0 0.00 0.00 0.00 84 1022.3
20260506164532 60 215 1.0 3.0 0.00 0.00 0.00 85 1022.4
20260506164031 60 219 0.0 4.0 0.00 0.00 0.00 85 1022.4
20260506163532 59 250 2.0 4.0 0.00 0.00 0.00 85 1022.4
20260506163041 59 250 0.0 4.0 0.00 0.00 0.00 85 1022.4
20260506162532 59 257 0.0 5.0 0.00 0.00 0.00 86 1022.3
20260506162032 59 293 0.0 4.0 0.00 0.00 0.00 87 1022.2
20260506161527 59 293 2.0 5.0 0.00 0.00 0.00 87 1022.2
20260506161027 59 294 2.0 5.0 0.00 0.00 0.00 87 1022.2
20260506160532 59 295 2.0 3.0 0.00 0.00 0.00 87 1022.3
20260506160026 59 296 0.0 5.0 0.00 0.00 0.00 88 1022.1
20260506155525 59 292 1.0 5.0 0.00 0.00 0.00 87 1022.1
20260506155025 59 14 1.0 4.0 0.00 0.00 0.00 88 1022.1
20260506154531 59 17 1.0 2.0 0.00 0.00 0.00 88 1022.1
20260506154029 59 28 1.0 2.0 0.00 0.00 0.00 88 1022.1
20260506153524 58 43 0.0 2.0 0.00 0.00 0.00 88 1022.0
20260506153024 58 344 0.0 1.0 0.00 0.00 0.00 88 1022.0
20260506152528 58 329 0.0 1.0 0.00 0.00 0.00 88 1022.1
20260506152027 58 342 0.0 1.0 0.00 0.00 0.00 88 1022.1
20260506151523 58 111 0.0 1.0 0.00 0.00 0.00 88 1022.1
20260506151024 58 116 0.0 1.0 0.00 0.00 0.00 88 1022.1
20260506150524 58 125 0.0 1.0 0.00 0.00 0.00 89 1022.1